Time,TemperatureF,DewpointF,PressureIn,WindDirection,WindDirectionDegrees,WindSpeedMPH,WindSpeedGustMPH,Humidity,HourlyPrecipIn,Conditions,Clouds,dailyrainin,SoftwareType,DateUTC
2013-04-05 00:00:00,60.5,57.6,29.86,West,281,1.0,1.0,90,0.00,,,0.01,Wunderground v.1.15,2013-04-05 05:00:00,
2013-04-05 00:06:00,60.4,57.5,29.87,NNW,332,1.0,7.0,90,0.00,,,0.01,Wunderground v.1.15,2013-04-05 05:06:00,
2013-04-05 00:15:00,60.1,57.2,29.87,West,271,1.0,7.0,90,0.00,,,0.01,Wunderground v.1.15,2013-04-05 05:15:00,
2013-04-05 00:21:00,59.9,57.3,29.87,NNW,335,1.0,1.0,91,0.00,,,0.01,Wunderground v.1.15,2013-04-05 05:21:00,
2013-04-05 00:30:00,59.3,56.7,29.87,NNW,337,1.0,1.0,91,0.00,,,0.01,Wunderground v.1.15,2013-04-05 05:30:00,
2013-04-05 00:35:00,59.2,56.6,29.88,SSE,159,1.0,2.0,91,0.00,,,0.01,Wunderground v.1.15,2013-04-05 05:35:00,
2013-04-05 00:40:00,59.0,56.4,29.88,WSW,240,1.0,7.0,91,0.00,,,0.01,Wunderground v.1.15,2013-04-05 05:40:00,
2013-04-05 00:46:00,58.9,56.3,29.88,West,278,1.0,7.0,91,0.00,,,0.01,Wunderground v.1.15,2013-04-05 05:46:00,
2013-04-05 00:55:00,58.7,56.1,29.88,West,271,1.0,7.0,91,0.00,,,0.01,Wunderground v.1.15,2013-04-05 05:55:00,
2013-04-05 01:01:00,58.6,56.0,29.88,East,98,0.0,7.0,91,0.00,,,0.01,Wunderground v.1.15,2013-04-05 06:01:00,
2013-04-05 01:06:00,58.6,56.0,29.88,NW,316,0.0,7.0,91,0.00,,,0.01,Wunderground v.1.15,2013-04-05 06:06:00,
2013-04-05 01:16:00,58.4,55.8,29.88,NNW,330,0.0,5.0,91,0.00,,,0.01,Wunderground v.1.15,2013-04-05 06:16:00,
2013-04-05 01:25:00,58.4,55.5,29.88,West,260,1.0,5.0,90,0.00,,,0.01,Wunderground v.1.15,2013-04-05 06:25:00,
2013-04-05 01:31:00,58.3,55.4,29.88,North,351,1.0,5.0,90,0.00,,,0.01,Wunderground v.1.15,2013-04-05 06:31:00,
2013-04-05 01:41:00,58.1,55.2,29.88,NNW,327,1.0,1.0,90,0.00,,,0.01,Wunderground v.1.15,2013-04-05 06:41:00,
2013-04-05 01:50:00,58.0,54.8,29.88,SSW,207,1.0,6.0,89,0.00,,,0.01,Wunderground v.1.15,2013-04-05 06:50:00,
2013-04-05 01:55:00,58.0,54.8,29.88,SW,230,1.0,6.0,89,0.00,,,0.01,Wunderground v.1.15,2013-04-05 06:55:00,
2013-04-05 02:01:00,57.8,54.6,29.88,South,186,0.0,5.0,89,0.00,,,0.01,Wunderground v.1.15,2013-04-05 07:01:00,
2013-04-05 02:06:00,57.8,54.6,29.88,WNW,294,1.0,10.0,89,0.00,,,0.01,Wunderground v.1.15,2013-04-05 07:06:00,
2013-04-05 02:15:00,57.5,54.0,29.88,WNW,288,1.0,10.0,88,0.00,,,0.01,Wunderground v.1.15,2013-04-05 07:15:00,
2013-04-05 02:20:00,57.5,54.0,29.88,NW,310,1.0,10.0,88,0.00,,,0.01,Wunderground v.1.15,2013-04-05 07:20:00,
2013-04-05 02:26:00,57.5,54.0,29.88,ESE,103,1.0,10.0,88,0.00,,,0.01,Wunderground v.1.15,2013-04-05 07:26:00,
2013-04-05 02:40:00,57.5,54.3,29.88,NNW,344,0.0,10.0,89,0.00,,,0.01,Wunderground v.1.15,2013-04-05 07:40:00,
2013-04-05 02:46:00,57.5,54.3,29.88,South,188,1.0,10.0,89,0.00,,,0.01,Wunderground v.1.15,2013-04-05 07:46:00,
2013-04-05 02:55:00,57.3,54.1,29.88,North,4,1.0,10.0,89,0.00,,,0.01,Wunderground v.1.15,2013-04-05 07:55:00,
2013-04-05 03:00:00,57.3,54.1,29.88,North,356,0.0,10.0,89,0.00,,,0.01,Wunderground v.1.15,2013-04-05 08:00:00,
2013-04-05 03:06:00,57.2,54.0,29.88,WNW,301,0.0,10.0,89,0.00,,,0.01,Wunderground v.1.15,2013-04-05 08:06:00,
2013-04-05 03:16:00,57.0,53.8,29.88,North,352,1.0,3.0,89,0.00,,,0.01,Wunderground v.1.15,2013-04-05 08:16:00,
2013-04-05 03:21:00,56.9,53.7,29.88,NE,35,0.0,3.0,89,0.00,,,0.01,Wunderground v.1.15,2013-04-05 08:21:00,
2013-04-05 03:30:00,56.7,53.5,29.88,SW,236,1.0,1.0,89,0.00,,,0.01,Wunderground v.1.15,2013-04-05 08:30:00,
2013-04-05 03:40:00,56.6,53.4,29.88,West,269,0.0,3.0,89,0.00,,,0.01,Wunderground v.1.15,2013-04-05 08:40:00,
2013-04-05 03:45:00,56.5,53.3,29.88,East,99,1.0,3.0,89,0.00,,,0.01,Wunderground v.1.15,2013-04-05 08:45:00,
2013-04-05 03:51:00,56.5,53.3,29.89,NW,323,1.0,1.0,89,0.00,,,0.00,Wunderground v.1.15,2013-04-05 08:51:00,
2013-04-05 04:00:00,56.3,53.1,29.89,South,191,1.0,1.0,89,0.00,,,0.00,Wunderground v.1.15,2013-04-05 09:00:00,
2013-04-05 04:10:00,56.2,53.3,29.89,NNE,23,0.0,4.0,90,0.00,,,0.00,Wunderground v.1.15,2013-04-05 09:10:00,
2013-04-05 04:15:00,56.0,53.1,29.89,NNE,25,0.0,4.0,90,0.00,,,0.00,Wunderground v.1.15,2013-04-05 09:15:00,
2013-04-05 04:21:00,56.0,53.1,29.89,NNW,340,0.0,4.0,90,0.00,,,0.00,Wunderground v.1.15,2013-04-05 09:21:00,
2013-04-05 04:30:00,55.6,53.0,29.89,NNE,13,1.0,1.0,91,0.00,,,0.00,Wunderground v.1.15,2013-04-05 09:30:00,
2013-04-05 04:40:00,55.1,52.8,29.90,NW,313,0.0,4.0,92,0.00,,,0.00,Wunderground v.1.15,2013-04-05 09:40:00,
2013-04-05 04:45:00,55.0,52.7,29.90,SW,214,1.0,4.0,92,0.00,,,0.00,Wunderground v.1.15,2013-04-05 09:45:00,
2013-04-05 04:50:00,54.8,52.5,29.90,ENE,65,0.0,4.0,92,0.00,,,0.00,Wunderground v.1.15,2013-04-05 09:50:00,
2013-04-05 04:56:00,54.7,52.7,29.90,NNW,331,0.0,4.0,93,0.00,,,0.00,Wunderground v.1.15,2013-04-05 09:56:00,
2013-04-05 05:10:00,54.5,52.8,29.90,NNW,348,0.0,3.0,94,0.00,,,0.00,Wunderground v.1.15,2013-04-05 10:10:00,
2013-04-05 05:15:00,54.4,52.7,29.90,NNW,331,0.0,3.0,94,0.00,,,0.00,Wunderground v.1.15,2013-04-05 10:15:00,
2013-04-05 05:20:00,54.4,53.0,29.90,NW,323,0.0,3.0,95,0.00,,,0.00,Wunderground v.1.15,2013-04-05 10:20:00,
2013-04-05 05:25:00,54.4,53.0,29.90,WNW,285,0.0,3.0,95,0.00,,,0.00,Wunderground v.1.15,2013-04-05 10:25:00,
2013-04-05 05:31:00,54.4,53.0,29.90,West,269,0.0,3.0,95,0.00,,,0.00,Wunderground v.1.15,2013-04-05 10:31:00,
2013-04-05 05:41:00,54.4,53.0,29.91,ESE,115,0.0,3.0,95,0.00,,,0.00,Wunderground v.1.15,2013-04-05 10:41:00,
2013-04-05 05:51:00,54.4,53.0,29.92,NW,312,0.0,3.0,95,0.00,,,0.00,Wunderground v.1.15,2013-04-05 10:51:00,
2013-04-05 05:56:00,54.4,53.0,29.92,West,279,0.0,5.0,95,0.00,,,0.00,Wunderground v.1.15,2013-04-05 10:56:00,
2013-04-05 06:06:00,54.4,53.0,29.92,NW,309,1.0,6.0,95,0.00,,,0.00,Wunderground v.1.15,2013-04-05 11:06:00,
2013-04-05 06:15:00,54.4,53.0,29.92,WSW,245,1.0,6.0,95,0.00,,,0.00,Wunderground v.1.15,2013-04-05 11:15:00,
2013-04-05 06:21:00,54.5,53.1,29.93,NNW,337,0.0,6.0,95,0.00,,,0.00,Wunderground v.1.15,2013-04-05 11:21:00,
2013-04-05 06:30:00,54.5,52.8,29.93,NW,323,0.0,6.0,94,0.00,,,0.00,Wunderground v.1.15,2013-04-05 11:30:00,
2013-04-05 06:40:00,54.4,52.7,29.93,NW,317,1.0,1.0,94,0.00,,,0.00,Wunderground v.1.15,2013-04-05 11:40:00,
2013-04-05 06:46:00,54.4,52.7,29.93,NW,326,0.0,6.0,94,0.00,,,0.00,Wunderground v.1.15,2013-04-05 11:46:00,
2013-04-05 06:55:00,54.1,52.4,29.94,NNW,340,1.0,6.0,94,0.00,,,0.00,Wunderground v.1.15,2013-04-05 11:55:00,
2013-04-05 07:01:00,54.1,52.4,29.94,NNE,15,1.0,1.0,94,0.00,,,0.00,Wunderground v.1.15,2013-04-05 12:01:00,
2013-04-05 07:06:00,54.1,52.4,29.95,NNW,329,1.0,5.0,94,0.00,,,0.00,Wunderground v.1.15,2013-04-05 12:06:00,
2013-04-05 07:16:00,54.1,52.4,29.95,WNW,300,1.0,2.0,94,0.00,,,0.00,Wunderground v.1.15,2013-04-05 12:16:00,
2013-04-05 07:25:00,53.9,52.2,29.95,NNW,335,1.0,5.0,94,0.00,,,0.00,Wunderground v.1.15,2013-04-05 12:25:00,
2013-04-05 07:31:00,54.1,52.4,29.95,North,356,1.0,5.0,94,0.00,,,0.00,Wunderground v.1.15,2013-04-05 12:31:00,
2013-04-05 07:40:00,53.9,52.2,29.96,West,269,1.0,1.0,94,0.00,,,0.00,Wunderground v.1.15,2013-04-05 12:40:00,
2013-04-05 07:45:00,53.8,52.1,29.96,NNW,330,1.0,5.0,94,0.00,,,0.00,Wunderground v.1.15,2013-04-05 12:45:00,
2013-04-05 07:55:00,53.9,52.2,29.96,NW,321,1.0,5.0,94,0.00,,,0.00,Wunderground v.1.15,2013-04-05 12:55:00,
2013-04-05 08:01:00,53.9,52.2,29.96,NNW,340,0.0,5.0,94,0.00,,,0.00,Wunderground v.1.15,2013-04-05 13:01:00,
2013-04-05 08:10:00,53.9,51.9,29.97,WSW,248,1.0,1.0,93,0.00,,,0.00,Wunderground v.1.15,2013-04-05 13:10:00,
2013-04-05 08:16:00,54.1,52.1,29.97,NW,311,1.0,4.0,93,0.00,,,0.00,Wunderground v.1.15,2013-04-05 13:16:00,
2013-04-05 08:26:00,54.2,52.2,29.96,NNW,327,1.0,4.0,93,0.00,,,0.00,Wunderground v.1.15,2013-04-05 13:26:00,
2013-04-05 08:31:00,54.4,52.4,29.96,West,280,1.0,4.0,93,0.00,,,0.00,Wunderground v.1.15,2013-04-05 13:31:00,
2013-04-05 08:41:00,54.8,53.1,29.98,WNW,300,0.0,4.0,94,0.00,,,0.00,Wunderground v.1.15,2013-04-05 13:41:00,
2013-04-05 08:51:00,54.7,52.7,29.99,NW,323,0.0,4.0,93,0.00,,,0.00,Wunderground v.1.15,2013-04-05 13:51:00,
2013-04-05 09:00:00,54.8,52.5,29.99,West,270,0.0,4.0,92,0.00,,,0.00,Wunderground v.1.15,2013-04-05 14:00:00,
2013-04-05 09:06:00,55.0,52.4,29.99,NNE,23,1.0,4.0,91,0.00,,,0.00,Wunderground v.1.15,2013-04-05 14:06:00,
2013-04-05 09:16:00,55.3,52.1,29.99,WNW,285,0.0,4.0,89,0.00,,,0.00,Wunderground v.1.15,2013-04-05 14:16:00,
2013-04-05 09:26:00,55.4,51.9,30.00,NW,324,0.0,4.0,88,0.00,,,0.00,Wunderground v.1.15,2013-04-05 14:26:00,
2013-04-05 09:36:00,55.4,51.6,30.00,NNE,32,0.0,4.0,87,0.00,,,0.00,Wunderground v.1.15,2013-04-05 14:36:00,
2013-04-05 09:45:00,55.3,50.5,30.00,SW,221,1.0,4.0,84,0.00,,,0.00,Wunderground v.1.15,2013-04-05 14:45:00,
2013-04-05 09:51:00,55.1,50.0,30.01,NNE,27,1.0,1.0,83,0.00,,,0.00,Wunderground v.1.15,2013-04-05 14:51:00,
2013-04-05 09:56:00,55.1,50.0,30.01,NW,317,1.0,4.0,83,0.00,,,0.00,Wunderground v.1.15,2013-04-05 14:56:00,
2013-04-05 10:06:00,55.1,50.0,30.02,North,10,1.0,3.0,83,0.00,,,0.00,Wunderground v.1.15,2013-04-05 15:06:00,
2013-04-05 10:16:00,55.0,49.6,30.02,NW,317,1.0,5.0,82,0.00,,,0.00,Wunderground v.1.15,2013-04-05 15:16:00,
2013-04-05 10:25:00,55.6,50.2,30.02,North,6,1.0,5.0,82,0.00,,,0.00,Wunderground v.1.15,2013-04-05 15:25:00,
2013-04-05 10:31:00,56.2,50.4,30.02,NW,304,0.0,5.0,81,0.00,,,0.00,Wunderground v.1.15,2013-04-05 15:31:00,
2013-04-05 10:40:00,56.6,50.8,30.02,South,176,1.0,5.0,81,0.00,,,0.00,Wunderground v.1.15,2013-04-05 15:40:00,
2013-04-05 10:46:00,57.3,50.8,30.02,NNW,344,1.0,5.0,79,0.00,,,0.00,Wunderground v.1.15,2013-04-05 15:46:00,
2013-04-05 10:51:00,57.6,50.1,30.02,WNW,293,1.0,1.0,76,0.00,,,0.00,Wunderground v.1.15,2013-04-05 15:51:00,
2013-04-05 11:00:00,57.2,50.1,30.02,NNW,329,1.0,5.0,77,0.00,,,0.00,Wunderground v.1.15,2013-04-05 16:00:00,
2013-04-05 11:06:00,57.3,50.5,30.02,NW,326,1.0,6.0,78,0.00,,,0.00,Wunderground v.1.15,2013-04-05 16:06:00,
2013-04-05 11:16:00,57.5,50.7,30.02,NNW,347,1.0,6.0,78,0.00,,,0.00,Wunderground v.1.15,2013-04-05 16:16:00,
2013-04-05 11:25:00,58.3,50.0,30.02,NW,322,1.0,6.0,74,0.00,,,0.00,Wunderground v.1.15,2013-04-05 16:25:00,
2013-04-05 11:31:00,58.4,50.1,30.02,West,266,1.0,6.0,74,0.00,,,0.00,Wunderground v.1.15,2013-04-05 16:31:00,
2013-04-05 11:41:00,58.1,49.9,30.02,ESE,116,0.0,6.0,74,0.00,,,0.00,Wunderground v.1.15,2013-04-05 16:41:00,
2013-04-05 11:51:00,57.5,49.3,30.02,NW,324,1.0,6.0,74,0.00,,,0.00,Wunderground v.1.15,2013-04-05 16:51:00,
2013-04-05 12:00:00,57.0,49.5,30.02,NW,318,1.0,1.0,76,0.00,,,0.00,Wunderground v.1.15,2013-04-05 17:00:00,
2013-04-05 12:05:00,57.3,49.8,30.02,North,352,1.0,6.0,76,0.00,,,0.00,Wunderground v.1.15,2013-04-05 17:05:00,
2013-04-05 12:15:00,57.5,49.6,30.02,NNW,347,1.0,6.0,75,0.00,,,0.00,Wunderground v.1.15,2013-04-05 17:15:00,
2013-04-05 12:26:00,57.6,49.4,30.02,North,349,1.0,6.0,74,0.00,,,0.00,Wunderground v.1.15,2013-04-05 17:26:00,
2013-04-05 12:35:00,58.3,49.7,30.02,North,358,1.0,2.0,73,0.00,,,0.00,Wunderground v.1.15,2013-04-05 17:35:00,
2013-04-05 12:40:00,58.1,49.1,30.02,NW,315,1.0,6.0,72,0.00,,,0.00,Wunderground v.1.15,2013-04-05 17:40:00,
2013-04-05 12:46:00,57.8,49.2,30.02,West,271,1.0,6.0,73,0.00,,,0.00,Wunderground v.1.15,2013-04-05 17:46:00,
2013-04-05 12:56:00,58.0,49.4,30.02,SE,141,1.0,6.0,73,0.00,,,0.00,Wunderground v.1.15,2013-04-05 17:56:00,
2013-04-05 13:10:00,58.6,50.3,30.01,East,93,1.0,1.0,74,0.00,,,0.00,Wunderground v.1.15,2013-04-05 18:10:00,
2013-04-05 13:15:00,59.5,50.8,30.01,WNW,302,1.0,2.0,73,0.00,,,0.00,Wunderground v.1.15,2013-04-05 18:15:00,
2013-04-05 13:25:00,60.2,50.4,30.01,NNW,343,1.0,9.0,70,0.00,,,0.00,Wunderground v.1.15,2013-04-05 18:25:00,
2013-04-05 13:30:00,60.1,49.5,30.01,WNW,295,1.0,9.0,68,0.00,,,0.00,Wunderground v.1.15,2013-04-05 18:30:00,
2013-04-05 13:40:00,59.5,49.7,30.00,SE,140,1.0,1.0,70,0.00,,,0.00,Wunderground v.1.15,2013-04-05 18:40:00,
2013-04-05 13:46:00,59.5,48.9,30.00,NNW,344,2.0,2.0,68,0.00,,,0.00,Wunderground v.1.15,2013-04-05 18:46:00,
2013-04-05 13:56:00,59.9,49.3,30.00,WSW,252,1.0,9.0,68,0.00,,,0.00,Wunderground v.1.15,2013-04-05 18:56:00,
2013-04-05 14:06:00,59.8,50.0,30.00,NE,56,1.0,9.0,70,0.00,,,0.00,Wunderground v.1.15,2013-04-05 19:06:00,
2013-04-05 14:16:00,60.5,49.1,30.00,East,81,1.0,9.0,66,0.00,,,0.00,Wunderground v.1.15,2013-04-05 19:16:00,
2013-04-05 14:25:00,60.5,49.5,30.00,NW,304,1.0,9.0,67,0.00,,,0.00,Wunderground v.1.15,2013-04-05 19:25:00,
2013-04-05 14:30:00,60.5,49.9,30.00,North,359,1.0,9.0,68,0.00,,,0.00,Wunderground v.1.15,2013-04-05 19:30:00,
2013-04-05 14:40:00,61.0,48.7,30.00,NNW,336,1.0,1.0,64,0.00,,,0.00,Wunderground v.1.15,2013-04-05 19:40:00,
2013-04-05 14:45:00,60.5,48.7,30.00,North,1,1.0,9.0,65,0.00,,,0.00,Wunderground v.1.15,2013-04-05 19:45:00,
2013-04-05 14:55:00,60.5,49.1,30.00,NNW,342,1.0,9.0,66,0.00,,,0.00,Wunderground v.1.15,2013-04-05 19:55:00,
2013-04-05 15:00:00,61.0,49.6,30.00,NW,318,1.0,9.0,66,0.00,,,0.00,Wunderground v.1.15,2013-04-05 20:00:00,
2013-04-05 15:10:00,61.8,49.1,29.99,ENE,63,1.0,6.0,63,0.00,,,0.00,Wunderground v.1.15,2013-04-05 20:10:00,
2013-04-05 15:15:00,61.6,48.4,29.99,WNW,302,1.0,6.0,62,0.00,,,0.00,Wunderground v.1.15,2013-04-05 20:15:00,
2013-04-05 15:25:00,62.3,48.2,29.99,NNW,342,1.0,6.0,60,0.00,,,0.00,Wunderground v.1.15,2013-04-05 20:25:00,
2013-04-05 15:30:00,62.1,48.5,29.99,SSE,147,1.0,1.0,61,0.00,,,0.00,Wunderground v.1.15,2013-04-05 20:30:00,
2013-04-05 15:40:00,63.5,50.7,29.98,NNW,345,1.0,6.0,63,0.00,,,0.00,Wunderground v.1.15,2013-04-05 20:40:00,
2013-04-05 15:45:00,64.3,49.7,29.98,North,0,1.0,6.0,59,0.00,,,0.00,Wunderground v.1.15,2013-04-05 20:45:00,
2013-04-05 15:51:00,64.8,50.6,29.98,North,352,1.0,1.0,60,0.00,,,0.00,Wunderground v.1.15,2013-04-05 20:51:00,
2013-04-05 16:01:00,67.3,51.1,29.98,WNW,292,1.0,1.0,56,0.00,,,0.00,Wunderground v.1.15,2013-04-05 21:01:00,
2013-04-05 16:06:00,67.8,50.5,29.97,North,354,0.0,7.0,54,0.00,,,0.00,Wunderground v.1.15,2013-04-05 21:06:00,
2013-04-05 16:15:00,67.3,49.6,29.97,East,82,1.0,7.0,53,0.00,,,0.00,Wunderground v.1.15,2013-04-05 21:15:00,
2013-04-05 16:25:00,67.4,49.2,29.97,North,7,1.0,7.0,52,0.00,,,0.00,Wunderground v.1.15,2013-04-05 21:25:00,
2013-04-05 16:30:00,67.8,50.5,29.97,NW,325,1.0,1.0,54,0.00,,,0.00,Wunderground v.1.15,2013-04-05 21:30:00,
2013-04-05 16:40:00,68.6,49.7,29.97,NNW,343,0.0,7.0,51,0.00,,,0.00,Wunderground v.1.15,2013-04-05 21:40:00,
2013-04-05 16:45:00,68.9,50.5,29.97,NNW,340,0.0,7.0,52,0.00,,,0.00,Wunderground v.1.15,2013-04-05 21:45:00,
2013-04-05 16:56:00,68.9,50.0,29.97,ENE,74,0.0,7.0,51,0.00,,,0.00,Wunderground v.1.15,2013-04-05 21:56:00,
2013-04-05 17:06:00,69.1,49.7,29.97,WSW,245,0.0,7.0,50,0.00,,,0.00,Wunderground v.1.15,2013-04-05 22:06:00,
2013-04-05 17:15:00,68.9,48.9,29.97,WNW,295,0.0,4.0,49,0.00,,,0.00,Wunderground v.1.15,2013-04-05 22:15:00,
2013-04-05 17:20:00,68.4,49.0,29.97,West,269,0.0,4.0,50,0.00,,,0.00,Wunderground v.1.15,2013-04-05 22:20:00,
2013-04-05 17:26:00,67.9,49.1,29.97,ENE,71,0.0,4.0,51,0.00,,,0.00,Wunderground v.1.15,2013-04-05 22:26:00,
2013-04-05 17:35:00,66.4,48.7,29.97,NNE,22,0.0,4.0,53,0.00,,,0.00,Wunderground v.1.15,2013-04-05 22:35:00,
2013-04-05 17:40:00,66.0,48.4,29.97,WNW,297,0.0,4.0,53,0.00,,,0.00,Wunderground v.1.15,2013-04-05 22:40:00,
2013-04-05 17:46:00,65.8,48.2,29.97,NNE,15,0.0,4.0,53,0.00,,,0.00,Wunderground v.1.15,2013-04-05 22:46:00,
2013-04-05 17:55:00,65.5,47.9,29.97,NNE,20,0.0,4.0,53,0.00,,,0.00,Wunderground v.1.15,2013-04-05 22:55:00,
2013-04-05 18:01:00,65.0,47.9,29.97,WNW,288,0.0,4.0,54,0.00,,,0.00,Wunderground v.1.15,2013-04-05 23:01:00,
2013-04-05 18:06:00,64.5,48.0,29.98,NW,310,0.0,5.0,55,0.00,,,0.00,Wunderground v.1.15,2013-04-05 23:06:00,
2013-04-05 18:15:00,64.0,48.0,29.98,NW,325,0.0,5.0,56,0.00,,,0.00,Wunderground v.1.15,2013-04-05 23:15:00,
2013-04-05 18:21:00,63.7,48.2,29.99,NNW,333,0.0,5.0,57,0.00,,,0.00,Wunderground v.1.15,2013-04-05 23:21:00,
2013-04-05 18:30:00,63.2,48.2,29.99,North,351,0.0,5.0,58,0.00,,,0.00,Wunderground v.1.15,2013-04-05 23:30:00,
2013-04-05 18:40:00,62.7,47.7,29.99,West,280,0.0,5.0,58,0.00,,,0.00,Wunderground v.1.15,2013-04-05 23:40:00,
2013-04-05 18:45:00,62.4,47.9,29.99,West,280,0.0,5.0,59,0.00,,,0.00,Wunderground v.1.15,2013-04-05 23:45:00,
2013-04-05 18:51:00,62.1,48.0,30.00,WNW,298,0.0,5.0,60,0.00,,,0.00,Wunderground v.1.15,2013-04-05 23:51:00,
2013-04-05 19:00:00,61.5,48.4,30.00,North,357,0.0,5.0,62,0.00,,,0.00,Wunderground v.1.15,2013-04-06 00:00:00,
2013-04-05 19:05:00,61.2,48.1,30.00,North,357,0.0,5.0,62,0.00,,,0.00,Wunderground v.1.15,2013-04-06 00:05:00,
2013-04-05 19:15:00,60.5,48.3,30.00,North,357,0.0,1.0,64,0.00,,,0.00,Wunderground v.1.15,2013-04-06 00:15:00,
2013-04-05 19:25:00,59.6,48.6,30.00,North,357,0.0,1.0,67,0.00,,,0.00,Wunderground v.1.15,2013-04-06 00:25:00,
2013-04-05 19:30:00,59.2,48.6,30.00,North,357,0.0,1.0,68,0.00,,,0.00,Wunderground v.1.15,2013-04-06 00:30:00,
2013-04-05 19:40:00,58.3,48.6,30.01,North,357,0.0,1.0,70,0.00,,,0.00,Wunderground v.1.15,2013-04-06 00:40:00,
2013-04-05 19:46:00,57.6,48.6,30.01,North,357,0.0,1.0,72,0.00,,,0.00,Wunderground v.1.15,2013-04-06 00:46:00,
2013-04-05 19:56:00,56.6,48.4,30.02,North,357,0.0,1.0,74,0.00,,,0.00,Wunderground v.1.15,2013-04-06 00:56:00,
2013-04-05 20:06:00,55.7,48.2,30.02,North,357,0.0,1.0,76,0.00,,,0.00,Wunderground v.1.15,2013-04-06 01:06:00,
2013-04-05 20:15:00,54.8,47.7,30.02,North,357,0.0,0.0,77,0.00,,,0.00,Wunderground v.1.15,2013-04-06 01:15:00,
2013-04-05 20:25:00,54.1,48.1,30.03,North,357,0.0,0.0,80,0.00,,,0.00,Wunderground v.1.15,2013-04-06 01:25:00,
2013-04-05 20:31:00,53.8,48.1,30.03,North,357,0.0,0.0,81,0.00,,,0.00,Wunderground v.1.15,2013-04-06 01:31:00,
2013-04-05 20:41:00,53.2,48.2,30.03,North,357,0.0,0.0,83,0.00,,,0.00,Wunderground v.1.15,2013-04-06 01:41:00,
2013-04-05 20:56:00,52.5,47.8,30.03,North,357,0.0,0.0,84,0.00,,,0.00,Wunderground v.1.15,2013-04-06 01:56:00,
2013-04-05 21:06:00,51.9,47.5,30.04,North,357,0.0,0.0,85,0.00,,,0.00,Wunderground v.1.15,2013-04-06 02:06:00,
2013-04-05 21:15:00,51.4,47.7,30.04,North,357,0.0,0.0,87,0.00,,,0.00,Wunderground v.1.15,2013-04-06 02:15:00,
2013-04-05 21:20:00,51.3,47.9,30.05,North,357,0.0,0.0,88,0.00,,,0.00,Wunderground v.1.15,2013-04-06 02:20:00,
2013-04-05 21:25:00,51.1,48.0,30.05,North,357,0.0,0.0,89,0.00,,,0.00,Wunderground v.1.15,2013-04-06 02:25:00,
2013-04-05 21:31:00,51.0,47.9,30.05,North,357,0.0,0.0,89,0.00,,,0.00,Wunderground v.1.15,2013-04-06 02:31:00,
2013-04-05 21:41:00,50.7,47.9,30.06,North,357,0.0,0.0,90,0.00,,,0.00,Wunderground v.1.15,2013-04-06 02:41:00,
2013-04-05 21:51:00,50.5,48.0,30.06,North,357,0.0,0.0,91,0.00,,,0.00,Wunderground v.1.15,2013-04-06 02:51:00,
2013-04-05 22:00:00,50.4,48.2,30.06,North,357,0.0,0.0,92,0.00,,,0.00,Wunderground v.1.15,2013-04-06 03:00:00,
2013-04-05 22:10:00,50.1,47.9,30.06,North,357,0.0,0.0,92,0.00,,,0.00,Wunderground v.1.15,2013-04-06 03:10:00,
2013-04-05 22:15:00,49.9,47.7,30.06,North,357,0.0,0.0,92,0.00,,,0.00,Wunderground v.1.15,2013-04-06 03:15:00,
2013-04-05 22:21:00,49.8,47.6,30.06,North,357,0.0,0.0,92,0.00,,,0.00,Wunderground v.1.15,2013-04-06 03:21:00,
2013-04-05 22:26:00,49.6,47.4,30.06,North,357,0.0,0.0,92,0.00,,,0.00,Wunderground v.1.15,2013-04-06 03:26:00,
2013-04-05 22:36:00,49.5,47.3,30.07,North,357,0.0,0.0,92,0.00,,,0.00,Wunderground v.1.15,2013-04-06 03:36:00,
2013-04-05 22:45:00,49.2,47.0,30.07,North,357,0.0,0.0,92,0.00,,,0.00,Wunderground v.1.15,2013-04-06 03:45:00,
2013-04-05 22:55:00,48.9,46.7,30.07,North,357,0.0,0.0,92,0.00,,,0.00,Wunderground v.1.15,2013-04-06 03:55:00,
2013-04-05 23:00:00,48.8,46.6,30.07,North,357,0.0,0.0,92,0.00,,,0.00,Wunderground v.1.15,2013-04-06 04:00:00,
2013-04-05 23:06:00,48.6,46.7,30.06,North,357,0.0,0.0,93,0.00,,,0.00,Wunderground v.1.15,2013-04-06 04:06:00,
2013-04-05 23:11:00,48.5,46.6,30.06,North,357,0.0,0.0,93,0.00,,,0.00,Wunderground v.1.15,2013-04-06 04:11:00,
2013-04-05 23:16:00,48.3,46.4,30.06,North,357,0.0,0.0,93,0.00,,,0.00,Wunderground v.1.15,2013-04-06 04:16:00,
2013-04-05 23:26:00,48.0,46.1,30.06,North,357,0.0,0.0,93,0.00,,,0.00,Wunderground v.1.15,2013-04-06 04:26:00,
2013-04-05 23:36:00,47.7,45.8,30.06,North,357,0.0,0.0,93,0.00,,,0.00,Wunderground v.1.15,2013-04-06 04:36:00,
2013-04-05 23:45:00,47.4,45.8,30.06,North,357,0.0,0.0,94,0.00,,,0.00,Wunderground v.1.15,2013-04-06 04:45:00,
2013-04-05 23:50:00,47.4,45.8,30.07,North,357,0.0,0.0,94,0.00,,,0.00,Wunderground v.1.15,2013-04-06 04:50:00,
2013-04-05 23:56:00,47.4,45.8,30.07,North,357,0.0,0.0,94,0.00,,,0.00,Wunderground v.1.15,2013-04-06 04:56:00,